• In Belarus
  • List of Countries
  • For 7 days
  • Water Temperature
  • Satellite Maps
  • Weather Map
  • Weather Widgets
  • user-avatar
    Login

    Hourly Weather Kitzbuhel

    Today, 20 May, Monday

    Time Temperature Precipitation Wind Pressure Humidity
    00:00 +8°C° 0.3 mm 2 mps 667 mmHg 94%
    01:00 +9°C° 0.3 mm 1 mps 667 mmHg 94%
    02:00 +9°C° 0.2 mm 1 mps 666 mmHg 94%
    03:00 +8°C° 0.2 mm 1 mps 666 mmHg 94%
    04:00 +8°C° 0.2 mm 1 mps 666 mmHg 94%
    05:00 +9°C° 0.2 mm 1 mps 666 mmHg 93%
    06:00 +10°C° 0.2 mm 1 mps 666 mmHg 92%
    07:00 +11°C° 0.2 mm 1 mps 666 mmHg 91%
    08:00 +12°C° 0.3 mm 1 mps 667 mmHg 87%
    09:00 +13°C° 0.3 mm 1 mps 667 mmHg 83%
    10:00 +14°C° 0.3 mm 1 mps 668 mmHg 79%
    11:00 +14°C° 0.8 mm 1 mps 668 mmHg 80%
    12:00 +14°C° 0.8 mm 1 mps 668 mmHg 82%
    13:00 +14°C° 0.8 mm 1 mps 668 mmHg 83%
    14:00 +14°C° 0.9 mm 1 mps 668 mmHg 82%
    15:00 +14°C° 0.9 mm 1 mps 668 mmHg 81%
    16:00 +13°C° 0.9 mm 1 mps 668 mmHg 80%
    17:00 +12°C° 0.8 mm 1 mps 668 mmHg 85%
    18:00 +11°C° 0.8 mm 1 mps 668 mmHg 91%
    19:00 +10°C° 0.8 mm 1 mps 667 mmHg 96%
    20:00 +10°C° 2.4 mm 1 mps 668 mmHg 96%
    21:00 +9°C° 2.4 mm 1 mps 668 mmHg 96%
    22:00 +8°C° 2.4 mm 2 mps 668 mmHg 97%
    23:00 +8°C° 3.2 mm 2 mps 668 mmHg 96%

    Tomorrow, 21 May, Tuesday

    Time Temperature Precipitation Wind Pressure Humidity
    00:00 +8°C° 3.2 mm 2 mps 668 mmHg 96%
    01:00 +7°C° 3.2 mm 2 mps 669 mmHg 96%
    02:00 +7°C° 2.8 mm 2 mps 669 mmHg 96%
    03:00 +7°C° 2.8 mm 2 mps 669 mmHg 96%
    04:00 +7°C° 2.8 mm 2 mps 669 mmHg 96%
    05:00 +7°C° 2.2 mm 2 mps 669 mmHg 96%
    06:00 +7°C° 2.2 mm 2 mps 669 mmHg 96%
    07:00 +8°C° 2.2 mm 1 mps 670 mmHg 96%
    08:00 +9°C° 1.5 mm 1 mps 670 mmHg 95%
    09:00 +9°C° 1.5 mm 1 mps 671 mmHg 95%
    10:00 +9°C° 1.5 mm 1 mps 671 mmHg 94%
    11:00 +10°C° 0.8 mm 1 mps 671 mmHg 94%
    12:00 +10°C° 0.8 mm 1 mps 672 mmHg 94%
    13:00 +10°C° 0.8 mm 1 mps 672 mmHg 93%
    14:00 +10°C° 0.6 mm 1 mps 672 mmHg 93%
    15:00 +10°C° 0.6 mm 1 mps 672 mmHg 92%
    16:00 +11°C° 0.6 mm 1 mps 673 mmHg 91%
    17:00 +10°C° 0.4 mm 1 mps 673 mmHg 93%
    18:00 +10°C° 0.4 mm 1 mps 673 mmHg 94%
    19:00 +9°C° 0.4 mm 1 mps 673 mmHg 95%
    20:00 +9°C° 0.4 mm 1 mps 674 mmHg 95%
    21:00 +9°C° 0.4 mm 1 mps 674 mmHg 95%
    22:00 +8°C° 0.4 mm 1 mps 674 mmHg 95%
    23:00 +8°C° 0.2 mm 1 mps 674 mmHg 95%

    Day after tomorrow, 22 May, Wednesday

    Time Temperature Precipitation Wind Pressure Humidity
    00:00 +8°C° 0.2 mm 1 mps 675 mmHg 94%
    01:00 +8°C° 0.2 mm 1 mps 675 mmHg 94%
    02:00 +8°C° 0.2 mm 1 mps 675 mmHg 94%
    03:00 +8°C° 0.2 mm 1 mps 675 mmHg 94%
    04:00 +8°C° 0.2 mm 1 mps 675 mmHg 95%
    05:00 +9°C° 0.1 mm 1 mps 675 mmHg 94%
    06:00 +9°C° 0.1 mm 1 mps 675 mmHg 93%
    07:00 +10°C° 0.1 mm 1 mps 675 mmHg 92%
    08:00 +10°C° 0.4 mm 1 mps 675 mmHg 93%
    09:00 +10°C° 0.4 mm 1 mps 675 mmHg 93%
    10:00 +10°C° 0.4 mm 1 mps 676 mmHg 94%
    11:00 +11°C° 0.4 mm 1 mps 676 mmHg 89%
    12:00 +12°C° 0.4 mm 1 mps 676 mmHg 84%
    13:00 +13°C° 0.4 mm 1 mps 677 mmHg 79%
    14:00 +13°C° 0.1 mm 1 mps 677 mmHg 78%
    15:00 +14°C° 0.1 mm 1 mps 677 mmHg 78%
    16:00 +14°C° 0.1 mm 2 mps 677 mmHg 78%
    17:00 +13°C° 0.3 mm 1 mps 677 mmHg 84%
    18:00 +12°C° 0.3 mm 1 mps 677 mmHg 90%
    19:00 +10°C° 0.3 mm 1 mps 677 mmHg 97%
    20:00 +10°C° 0.6 mm 1 mps 677 mmHg 97%
    21:00 +10°C° 0.6 mm 1 mps 678 mmHg 98%
    22:00 +9°C° 0.6 mm 1 mps 678 mmHg 99%
    23:00 +9°C° 0.4 mm 1 mps 678 mmHg 99%

    23 May, Thursday

    Time Temperature Precipitation Wind Pressure Humidity
    00:00 +9°C° 0.4 mm 1 mps 678 mmHg 99%
    01:00 +9°C° 0.4 mm 1 mps 678 mmHg 99%
    02:00 +8°C° 0.2 mm 0 mps 678 mmHg 99%
    03:00 +7°C° 0.2 mm 0 mps 678 mmHg 99%
    04:00 +7°C° 0.2 mm 0 mps 678 mmHg 98%
    05:00 +8°C° 0.1 mm 0 mps 678 mmHg 98%
    06:00 +9°C° 0.1 mm 1 mps 678 mmHg 97%
    07:00 +10°C° 0.1 mm 1 mps 678 mmHg 96%
    08:00 +11°C° 0.1 mm 1 mps 678 mmHg 91%
    09:00 +12°C° 0.1 mm 1 mps 678 mmHg 86%
    10:00 +12°C° 0.1 mm 1 mps 678 mmHg 82%
    11:00 +13°C° 0.1 mm 1 mps 678 mmHg 78%
    12:00 +14°C° 0.1 mm 1 mps 678 mmHg 74%
    13:00 +14°C° 0.1 mm 1 mps 678 mmHg 70%
    14:00 +14°C° 0.1 mm 1 mps 678 mmHg 69%
    15:00 +15°C° 0.1 mm 1 mps 678 mmHg 67%
    16:00 +15°C° 0.1 mm 1 mps 678 mmHg 66%
    17:00 +14°C° 0 mm 1 mps 677 mmHg 72%
    18:00 +13°C° 0 mm 1 mps 677 mmHg 77%
    19:00 +12°C° 0 mm 1 mps 677 mmHg 83%
    20:00 +10°C° 0 mm 1 mps 677 mmHg 87%
    21:00 +9°C° 0 mm 1 mps 677 mmHg 90%
    22:00 +7°C° 0 mm 1 mps 677 mmHg 94%
    23:00 +7°C° 0 mm 1 mps 677 mmHg 94%

    24 May, Friday

    Time Temperature Precipitation Wind Pressure Humidity
    00:00 +7°C° 0 mm 1 mps 677 mmHg 93%
    01:00 +5°C° 0 mm 2 mps 677 mmHg 93%
    02:00 +6°C° 0 mm 1 mps 677 mmHg 90%
    03:00 +6°C° 0 mm 1 mps 677 mmHg 87%
    04:00 +6°C° 0 mm 1 mps 677 mmHg 83%
    05:00 +8°C° 0 mm 1 mps 677 mmHg 76%
    06:00 +10°C° 0 mm 1 mps 677 mmHg 68%
    07:00 +11°C° 0 mm 0 mps 677 mmHg 61%
    08:00 +13°C° 0 mm 0 mps 677 mmHg 55%
    09:00 +16°C° 0 mm 1 mps 677 mmHg 49%
    10:00 +19°C° 0 mm 1 mps 677 mmHg 43%
    11:00 +20°C° 0 mm 1 mps 677 mmHg 42%
    12:00 +21°C° 0 mm 1 mps 677 mmHg 41%
    13:00 +20°C° 0 mm 2 mps 676 mmHg 39%
    14:00 +20°C° 0 mm 2 mps 676 mmHg 43%
    15:00 +19°C° 0 mm 2 mps 675 mmHg 46%
    16:00 +19°C° 0 mm 2 mps 675 mmHg 50%
    17:00 +17°C° 0 mm 2 mps 674 mmHg 60%
    18:00 +16°C° 0 mm 1 mps 674 mmHg 71%
    19:00 +14°C° 0 mm 1 mps 673 mmHg 82%
    20:00 +13°C° 0.2 mm 1 mps 673 mmHg 86%
    21:00 +11°C° 0.2 mm 1 mps 673 mmHg 90%
    22:00 +10°C° 0.2 mm 1 mps 673 mmHg 94%
    23:00 +10°C° 0.5 mm 1 mps 672 mmHg 94%

    25 May, Saturday

    Time Temperature Precipitation Wind Pressure Humidity
    00:00 +10°C° 0.5 mm 1 mps 672 mmHg 94%
    01:00 +10°C° 0.5 mm 0 mps 672 mmHg 94%
    02:00 +10°C° 3.2 mm 1 mps 672 mmHg 96%
    03:00 +10°C° 3.2 mm 1 mps 672 mmHg 97%
    04:00 +10°C° 3.2 mm 1 mps 672 mmHg 99%
    05:00 +9°C° 3.3 mm 1 mps 672 mmHg 99%
    06:00 +9°C° 3.3 mm 1 mps 672 mmHg 98%
    07:00 +9°C° 3.3 mm 1 mps 672 mmHg 98%
    08:00 +9°C° 1.2 mm 1 mps 673 mmHg 98%
    09:00 +9°C° 1.2 mm 1 mps 673 mmHg 97%
    10:00 +9°C° 1.2 mm 1 mps 673 mmHg 96%
    11:00 +10°C° 0.3 mm 1 mps 674 mmHg 92%
    12:00 +11°C° 0.3 mm 1 mps 674 mmHg 88%
    13:00 +12°C° 0.3 mm 1 mps 674 mmHg 84%
    14:00 +12°C° 0.1 mm 1 mps 674 mmHg 82%
    15:00 +12°C° 0.1 mm 1 mps 674 mmHg 81%
    16:00 +12°C° 0.1 mm 1 mps 674 mmHg 79%
    17:00 +11°C° 0.1 mm 1 mps 675 mmHg 83%
    18:00 +11°C° 0.1 mm 1 mps 675 mmHg 87%
    19:00 +10°C° 0.1 mm 1 mps 675 mmHg 91%
    20:00 +9°C° 0 mm 1 mps 675 mmHg 93%
    21:00 +8°C° 0 mm 1 mps 676 mmHg 95%
    22:00 +8°C° 0 mm 1 mps 676 mmHg 97%
    23:00 +7°C° 0 mm 1 mps 676 mmHg 97%
    Show more